Location: Caltech
(34.1382°N, 118.1253°W)
Time: 17:39:57
(UTC-08:00)

Gbstr 26 Del rocket - Visible Passes

Search period start: 19 February 2017 00:00
Search period end: 01 March 2017 00:00
Orbit: 494 x 1266 km, 51.8° (Epoch: 19 February)

Date Brightness Start Highest point End Pass type
(mag) Time Alt. Az. Time Alt. Az. Time Alt. Az.
19 Feb 5.1 03:42:25 34° SE 03:42:25 34° SE 03:46:07 10° SE visible
19 Feb 5.1 05:25:03 18° WSW 05:26:36 20° SW 05:31:22 10° S visible
19 Feb 4.5 18:34:09 10° SSE 18:36:14 14° SE 18:36:36 14° ESE visible
19 Feb 5.8 20:19:05 10° WSW 20:19:13 11° WSW 20:19:13 11° WSW visible
20 Feb 5.6 03:39:12 25° SE 03:39:12 25° SE 03:41:50 10° SE visible
20 Feb 5.5 05:21:50 15° WSW 05:22:17 15° SW 05:25:54 10° SSW visible
20 Feb 4.1 18:29:00 10° S 18:31:54 20° SE 18:33:19 16° E visible
20 Feb 5.5 20:15:05 10° WSW 20:15:56 15° W 20:15:56 15° W visible
21 Feb 6.0 03:36:03 17° SSE 03:36:03 17° SSE 03:37:28 10° SE visible
21 Feb 5.8 05:18:41 11° SW 05:18:41 11° SW 05:19:32 10° SW visible
21 Feb 3.7 18:24:12 10° S 18:27:36 28° SE 18:29:58 15° ENE visible
21 Feb 5.3 20:11:11 10° W 20:12:36 18° WNW 20:12:36 18° WNW visible
22 Feb 6.4 03:32:57 10° SSE 03:32:57 10° SSE 03:32:58 10° SSE visible
22 Feb 3.2 18:19:35 10° SSW 18:23:19 41° SE 18:26:33 12° ENE visible
22 Feb 5.2 20:07:22 10° W 20:09:10 18° NW 20:09:10 18° NW visible
23 Feb 2.7 18:15:08 10° SW 18:19:03 60° SE 18:22:44 10° NE visible
23 Feb 5.3 20:03:42 10° WNW 20:05:40 16° NW 20:05:40 16° NW visible
24 Feb 2.6 18:10:48 10° SW 18:14:48 87° SE 18:18:32 10° NE visible
24 Feb 5.4 20:00:10 10° WNW 20:02:04 13° NNW 20:02:04 13° NNW visible
25 Feb 3.0 18:06:35 10° SW 18:10:34 67° NW 18:14:16 10° NE visible
25 Feb 5.5 19:56:56 10° NW 19:58:02 11° NNW 19:58:24 11° NNW visible
